| time (UTC) | temp F | wind direction | speed knots | gust knots | rain 1hr in | rain 24hr in | rain mn in | humidity % | barometer mb |
| 20260506153504 | 53 | 9 | 3.5 | 13.0 | 0.01 | 0.01 | 0.01 | 87 | 1015.4 |
| 20260506153014 | 53 | 33 | 5.2 | 13.0 | 0.01 | 0.01 | 0.01 | 88 | 1014.2 |
| 20260506152508 | 52 | 342 | 5.2 | 12.2 | 0.01 | 0.01 | 0.01 | 88 | 1014.3 |
| 20260506152012 | 52 | 337 | 5.2 | 11.3 | 0.01 | 0.01 | 0.01 | 88 | 1015.0 |
| 20260506151527 | 52 | 9 | 4.3 | 7.8 | 0.01 | 0.01 | 0.01 | 88 | 1015.8 |
| 20260506151010 | 51 | 34 | 3.5 | 7.0 | 0.01 | 0.01 | 0.01 | 87 | 1016.3 |
| 20260506150516 | 51 | 331 | 4.3 | 7.8 | 0.00 | 0.00 | 0.00 | 87 | 1017.0 |
| 20260506150031 | 51 | 322 | 4.3 | 7.8 | 0.00 | 0.00 | 0.00 | 87 | 1016.8 |
| 20260506145507 | 51 | 326 | 3.5 | 5.2 | 0.00 | 0.00 | 0.00 | 87 | 1016.7 |
| 20260506145014 | 51 | 346 | 3.5 | 8.7 | 0.00 | 0.00 | 0.00 | 87 | 1016.8 |
| 20260506144525 | 51 | 328 | 0.9 | 9.6 | 0.00 | 0.00 | 0.00 | 87 | 1016.3 |
| 20260506144018 | 51 | 25 | 4.3 | 9.6 | 0.00 | 0.00 | 0.00 | 86 | 1015.5 |
| 20260506143516 | 52 | 321 | 4.3 | 9.6 | 0.00 | 0.00 | 0.00 | 86 | 1015.2 |
| 20260506143040 | 52 | 347 | 4.3 | 8.7 | 0.00 | 0.00 | 0.00 | 86 | 1015.2 |
| 20260506142509 | 52 | 10 | 3.5 | 7.8 | 0.00 | 0.00 | 0.00 | 86 | 1014.3 |
| 20260506142006 | 52 | 342 | 3.5 | 7.8 | 0.00 | 0.00 | 0.00 | 85 | 1014.5 |
| 20260506141518 | 52 | 352 | 4.3 | 7.8 | 0.00 | 0.00 | 0.00 | 84 | 1014.9 |
| 20260506141007 | 52 | 50 | 4.3 | 8.7 | 0.00 | 0.00 | 0.00 | 83 | 1015.5 |
| 20260506140508 | 52 | 342 | 4.3 | 8.7 | 0.00 | 0.00 | 0.00 | 83 | 1015.6 |
| 20260506140020 | 52 | 347 | 5.2 | 12.2 | 0.00 | 0.00 | 0.00 | 83 | 1015.3 |
| 20260506135509 | 52 | 342 | 5.2 | 12.2 | 0.00 | 0.00 | 0.00 | 83 | 1015.3 |
| 20260506135008 | 52 | 335 | 4.3 | 10.4 | 0.00 | 0.00 | 0.00 | 82 | 1015.3 |
| 20260506134519 | 52 | 337 | 5.2 | 8.7 | 0.00 | 0.00 | 0.00 | 82 | 1015.4 |
| 20260506134008 | 52 | 341 | 4.3 | 8.7 | 0.00 | 0.00 | 0.00 | 83 | 1014.8 |
| 20260506133511 | 52 | 45 | 2.6 | 8.7 | 0.00 | 0.00 | 0.00 | 83 | 1014.5 |
| 20260506133028 | 52 | 343 | 3.5 | 8.7 | 0.00 | 0.00 | 0.00 | 83 | 1014.4 |
| 20260506132513 | 52 | 347 | 4.3 | 8.7 | 0.00 | 0.00 | 0.00 | 83 | 1014.2 |
| 20260506132014 | 52 | 5 | 3.5 | 9.6 | 0.00 | 0.00 | 0.00 | 83 | 1014.2 |
| 20260506131530 | 52 | 330 | 4.3 | 9.6 | 0.00 | 0.00 | 0.00 | 83 | 1014.3 |
| 20260506131008 | 51 | 31 | 3.5 | 11.3 | 0.00 | 0.00 | 0.00 | 83 | 1014.3 |
| 20260506130509 | 51 | 58 | 6.1 | 11.3 | 0.00 | 0.00 | 0.00 | 83 | 1014.3 |
| 20260506130008 | 51 | 5 | 5.2 | 10.4 | 0.00 | 0.00 | 0.00 | 83 | 1013.9 |
| 20260506125505 | 51 | 31 | 5.2 | 10.4 | 0.00 | 0.00 | 0.00 | 83 | 1014.0 |
| 20260506125003 | 51 | 5 | 5.2 | 10.4 | 0.00 | 0.00 | 0.00 | 83 | 1013.9 |
| 20260506124503 | 52 | 350 | 3.5 | 9.6 | 0.00 | 0.00 | 0.00 | 83 | 1013.8 |
| 20260506124004 | 51 | 22 | 4.3 | 12.2 | 0.00 | 0.00 | 0.00 | 82 | 1013.6 |
| 20260506123505 | 51 | 342 | 5.2 | 11.3 | 0.00 | 0.00 | 0.00 | 82 | 1013.9 |
| 20260506123009 | 52 | 9 | 4.3 | 10.4 | 0.00 | 0.00 | 0.00 | 82 | 1013.9 |
| 20260506122504 | 52 | 44 | 6.1 | 9.6 | 0.00 | 0.00 | 0.00 | 82 | 1013.7 |
| 20260506122012 | 52 | 352 | 4.3 | 12.2 | 0.00 | 0.00 | 0.00 | 82 | 1013.8 |
| 20260506121514 | 52 | 352 | 6.1 | 12.2 | 0.00 | 0.00 | 0.00 | 81 | 1013.6 |
| 20260506121003 | 52 | 360 | 6.1 | 13.0 | 0.00 | 0.00 | 0.00 | 81 | 1013.5 |
| 20260506120510 | 52 | 11 | 5.2 | 13.0 | 0.00 | 0.00 | 0.00 | 81 | 1013.6 |
| 20260506120022 | 52 | 345 | 5.2 | 12.2 | 0.00 | 0.00 | 0.00 | 81 | 1013.8 |
| 20260506115508 | 52 | 19 | 4.3 | 9.6 | 0.00 | 0.00 | 0.00 | 81 | 1013.5 |
| 20260506115004 | 52 | 346 | 6.1 | 12.2 | 0.00 | 0.00 | 0.00 | 80 | 1013.6 |
| 20260506114519 | 53 | 348 | 6.1 | 12.2 | 0.00 | 0.00 | 0.00 | 79 | 1013.5 |
| 20260506114005 | 53 | 5 | 5.2 | 13.0 | 0.00 | 0.00 | 0.00 | 78 | 1013.4 |
| 20260506113504 | 53 | 348 | 7.8 | 13.0 | 0.00 | 0.00 | 0.00 | 77 | 1013.1 |
| 20260506113008 | 54 | 17 | 4.3 | 9.6 | 0.00 | 0.00 | 0.00 | 76 | 1013.1 |
| 20260506112506 | 54 | 15 | 2.6 | 11.3 | 0.00 | 0.00 | 0.00 | 76 | 1012.9 |
| 20260506112006 | 54 | 344 | 5.2 | 13.0 | 0.00 | 0.00 | 0.00 | 76 | 1012.9 |
| 20260506111509 | 54 | 40 | 7.0 | 11.3 | 0.00 | 0.00 | 0.00 | 75 | 1012.7 |
| 20260506111005 | 54 | 352 | 4.3 | 10.4 | 0.00 | 0.00 | 0.00 | 75 | 1012.5 |
| 20260506110511 | 54 | 352 | 4.3 | 11.3 | 0.00 | 0.00 | 0.00 | 75 | 1012.3 |
| 20260506110007 | 54 | 34 | 5.2 | 11.3 | 0.00 | 0.00 | 0.00 | 75 | 1012.4 |
| 20260506105506 | 54 | 326 | 4.3 | 13.0 | 0.00 | 0.00 | 0.00 | 75 | 1012.3 |
| 20260506105013 | 54 | 334 | 5.2 | 13.0 | 0.00 | 0.00 | 0.00 | 75 | 1012.3 |
| 20260506104520 | 55 | 352 | 7.8 | 13.0 | 0.00 | 0.00 | 0.00 | 75 | 1012.2 |
| 20260506104003 | 55 | 338 | 2.6 | 10.4 | 0.00 | 0.00 | 0.00 | 75 | 1012.2 |
| 20260506103506 | 55 | 5 | 4.3 | 10.4 | 0.00 | 0.00 | 0.00 | 75 | 1012.2 |
| 20260506103020 | 55 | 17 | 5.2 | 12.2 | 0.00 | 0.00 | 0.00 | 75 | 1012.1 |
| 20260506102503 | 55 | 19 | 4.3 | 13.0 | 0.00 | 0.00 | 0.00 | 75 | 1011.9 |
| 20260506102006 | 55 | 27 | 5.2 | 13.0 | 0.00 | 0.00 | 0.00 | 75 | 1011.9 |
| 20260506101506 | 55 | 360 | 7.0 | 12.2 | 0.00 | 0.00 | 0.00 | 75 | 1011.7 |
| 20260506101008 | 55 | 325 | 7.0 | 12.2 | 0.00 | 0.00 | 0.00 | 75 | 1011.6 |
| 20260506100502 | 55 | 340 | 6.1 | 12.2 | 0.00 | 0.00 | 0.00 | 75 | 1011.4 |
| 20260506100016 | 56 | 14 | 5.2 | 11.3 | 0.00 | 0.00 | 0.00 | 75 | 1011.5 |
| 20260506095506 | 56 | 5 | 4.3 | 8.7 | 0.00 | 0.00 | 0.00 | 75 | 1011.4 |
| 20260506095006 | 56 | 344 | 3.5 | 8.7 | 0.00 | 0.00 | 0.00 | 76 | 1011.3 |
| 20260506094516 | 56 | 50 | 2.6 | 8.7 | 0.00 | 0.00 | 0.00 | 76 | 1011.3 |
| 20260506094006 | 56 | 17 | 2.6 | 7.0 | 0.00 | 0.00 | 0.00 | 75 | 1011.3 |
| 20260506093514 | 56 | 352 | 2.6 | 11.3 | 0.00 | 0.00 | 0.00 | 76 | 1011.3 |
| 20260506093008 | 56 | 344 | 4.3 | 11.3 | 0.00 | 0.00 | 0.00 | 76 | 1011.4 |
| 20260506092507 | 56 | 30 | 5.2 | 9.6 | 0.00 | 0.00 | 0.00 | 76 | 1011.2 |
| 20260506092019 | 56 | 344 | 4.3 | 10.4 | 0.00 | 0.00 | 0.00 | 76 | 1011.1 |
| 20260506091528 | 56 | 338 | 6.1 | 10.4 | 0.00 | 0.00 | 0.00 | 76 | 1011.1 |
| 20260506091004 | 56 | 352 | 6.1 | 9.6 | 0.00 | 0.00 | 0.00 | 77 | 1011.1 |
| 20260506090504 | 56 | 19 | 5.2 | 9.6 | 0.00 | 0.00 | 0.00 | 76 | 1011.0 |
| 20260506090010 | 56 | 343 | 3.5 | 7.0 | 0.00 | 0.00 | 0.00 | 76 | 1011.2 |
| 20260506085502 | 56 | 352 | 2.6 | 6.1 | 0.00 | 0.00 | 0.00 | 76 | 1011.1 |
| 20260506085009 | 56 | 360 | 2.6 | 7.8 | 0.00 | 0.00 | 0.00 | 76 | 1011.0 |
| 20260506084519 | 56 | 26 | 4.3 | 11.3 | 0.00 | 0.00 | 0.00 | 76 | 1010.9 |
| 20260506084009 | 56 | 40 | 3.5 | 11.3 | 0.00 | 0.00 | 0.00 | 77 | 1010.8 |
| 20260506083504 | 56 | 346 | 5.2 | 10.4 | 0.00 | 0.00 | 0.00 | 77 | 1010.7 |
| 20260506083020 | 56 | 336 | 4.3 | 10.4 | 0.00 | 0.00 | 0.00 | 77 | 1010.7 |
| 20260506082508 | 56 | 346 | 6.1 | 10.4 | 0.00 | 0.00 | 0.00 | 77 | 1010.6 |
| 20260506082018 | 56 | 348 | 3.5 | 10.4 | 0.00 | 0.00 | 0.00 | 77 | 1010.7 |
| 20260506081515 | 56 | 331 | 6.1 | 10.4 | 0.00 | 0.00 | 0.00 | 77 | 1010.8 |
| 20260506081009 | 57 | 9 | 2.6 | 10.4 | 0.00 | 0.00 | 0.00 | 77 | 1010.7 |
| 20260506080516 | 57 | 344 | 6.1 | 10.4 | 0.00 | 0.00 | 0.00 | 77 | 1010.7 |
| 20260506073509 | 57 | 331 | 3.5 | 7.0 | 0.00 | 0.00 | 0.00 | 78 | 1010.8 |
| 20260506073022 | 57 | 336 | 3.5 | 7.0 | 0.00 | 0.00 | 0.00 | 78 | 1010.6 |
| 20260506072515 | 57 | 26 | 2.6 | 7.0 | 0.00 | 0.00 | 0.00 | 77 | 1010.3 |
| 20260506072008 | 57 | 11 | 2.6 | 6.1 | 0.00 | 0.00 | 0.00 | 77 | 1010.3 |
| 20260506071521 | 57 | 360 | 2.6 | 6.1 | 0.00 | 0.00 | 0.00 | 78 | 1010.2 |
| 20260506071010 | 57 | 344 | 3.5 | 7.0 | 0.00 | 0.00 | 0.00 | 77 | 1010.1 |
| 20260506070505 | 57 | 39 | 3.5 | 7.8 | 0.00 | 0.00 | 0.00 | 78 | 1010.1 |
| 20260506062511 | 58 | 341 | 4.3 | 9.6 | 0.00 | 0.00 | 0.00 | 78 | 1010.4 |
| 20260506062009 | 58 | 360 | 3.5 | 9.6 | 0.00 | 0.00 | 0.00 | 78 | 1010.4 |
| 20260506061522 | 58 | 342 | 4.3 | 8.7 | 0.00 | 0.00 | 0.00 | 78 | 1010.3 |
| 20260506061008 | 58 | 40 | 3.5 | 9.6 | 0.00 | 0.00 | 0.00 | 78 | 1010.2 |
| 20260506060511 | 58 | 342 | 4.3 | 9.6 | 0.00 | 0.00 | 0.00 | 78 | 1010.3 |
| 20260506051009 | 60 | 5 | 4.3 | 12.2 | 0.00 | 0.00 | 0.00 | 79 | 1010.5 |
| 20260506050514 | 60 | 348 | 6.1 | 10.4 | 0.00 | 0.00 | 0.00 | 78 | 1010.4 |
| 20260506045011 | 60 | 334 | 7.0 | 11.3 | 0.00 | 0.00 | 0.00 | 79 | 1010.4 |
| 20260506044528 | 60 | 338 | 4.3 | 9.6 | 0.00 | 0.00 | 0.00 | 78 | 1010.2 |
| 20260506044015 | 60 | 5 | 5.2 | 11.3 | 0.00 | 0.00 | 0.00 | 78 | 1010.2 |
| 20260506043513 | 61 | 36 | 3.5 | 11.3 | 0.00 | 0.00 | 0.00 | 78 | 1010.1 |
| 20260506043030 | 61 | 352 | 4.3 | 9.6 | 0.00 | 0.00 | 0.00 | 78 | 1010.1 |
| 20260506042505 | 61 | 15 | 5.2 | 10.4 | 0.00 | 0.00 | 0.00 | 78 | 1010.2 |
| 20260506042005 | 61 | 337 | 3.5 | 11.3 | 0.00 | 0.00 | 0.00 | 78 | 1010.2 |
| 20260506041517 | 61 | 337 | 4.3 | 11.3 | 0.00 | 0.00 | 0.00 | 77 | 1010.3 |
| 20260506041007 | 61 | 41 | 3.5 | 12.2 | 0.00 | 0.00 | 0.00 | 78 | 1010.3 |
| 20260506040505 | 61 | 345 | 6.1 | 12.2 | 0.00 | 0.00 | 0.00 | 77 | 1010.3 |
| 20260506040003 | 62 | 360 | 7.0 | 12.2 | 0.00 | 0.00 | 0.00 | 77 | 1010.2 |
| 20260506035503 | 62 | 349 | 6.1 | 11.3 | 0.00 | 0.00 | 0.00 | 77 | 1010.3 |
| 20260506035003 | 62 | 330 | 6.1 | 11.3 | 0.00 | 0.00 | 0.00 | 77 | 1010.1 |
| 20260506034504 | 62 | 30 | 4.3 | 13.0 | 0.00 | 0.00 | 0.00 | 77 | 1009.9 |
| 20260506034004 | 62 | 335 | 7.0 | 13.0 | 0.00 | 0.00 | 0.00 | 77 | 1009.9 |
| 20260506033504 | 63 | 360 | 3.5 | 9.6 | 0.00 | 0.00 | 0.00 | 77 | 1009.8 |
| 20260506033008 | 63 | 20 | 3.5 | 8.7 | 0.00 | 0.00 | 0.00 | 76 | 1009.7 |
| 20260506032503 | 63 | 323 | 4.3 | 11.3 | 0.00 | 0.00 | 0.00 | 77 | 1009.5 |
| 20260506032007 | 63 | 360 | 5.2 | 13.0 | 0.00 | 0.00 | 0.00 | 76 | 1009.3 |
| 20260506031523 | 63 | 38 | 6.1 | 13.0 | 0.00 | 0.00 | 0.00 | 75 | 1009.3 |
| 20260506031003 | 63 | 11 | 6.1 | 13.0 | 0.00 | 0.00 | 0.00 | 75 | 1009.4 |
| 20260506030504 | 64 | 348 | 6.1 | 13.0 | 0.00 | 0.00 | 0.00 | 75 | 1009.1 |
| 20260506030022 | 65 | 9 | 7.0 | 13.0 | 0.00 | 0.00 | 0.00 | 75 | 1009.2 |
| 20260506025508 | 65 | 346 | 4.3 | 10.4 | 0.00 | 0.00 | 0.00 | 75 | 1009.0 |
| 20260506025006 | 65 | 35 | 4.3 | 9.6 | 0.00 | 0.00 | 0.00 | 74 | 1009.0 |
| 20260506024505 | 65 | 18 | 3.5 | 9.6 | 0.00 | 0.00 | 0.00 | 74 | 1008.9 |
| 20260506024004 | 65 | 321 | 3.5 | 10.4 | 0.00 | 0.00 | 0.00 | 74 | 1008.7 |
| 20260506023505 | 65 | 31 | 4.3 | 10.4 | 0.00 | 0.00 | 0.00 | 74 | 1008.6 |
| 20260506023009 | 65 | 352 | 6.1 | 10.4 | 0.00 | 0.00 | 0.00 | 74 | 1008.6 |
| 20260506022505 | 66 | 352 | 3.5 | 10.4 | 0.00 | 0.00 | 0.00 | 73 | 1008.5 |
| 20260506022006 | 66 | 352 | 5.2 | 10.4 | 0.00 | 0.00 | 0.00 | 73 | 1008.5 |
| 20260506021507 | 66 | 27 | 7.0 | 10.4 | 0.00 | 0.00 | 0.00 | 73 | 1008.3 |
| 20260506021008 | 66 | 9 | 5.2 | 9.6 | 0.00 | 0.00 | 0.00 | 72 | 1008.2 |
| 20260506020510 | 66 | 339 | 4.3 | 9.6 | 0.00 | 0.00 | 0.00 | 72 | 1008.1 |
| 20260506020021 | 66 | 336 | 4.3 | 11.3 | 0.00 | 0.00 | 0.00 | 72 | 1007.8 |
| 20260506015504 | 66 | 352 | 6.1 | 11.3 | 0.00 | 0.00 | 0.00 | 72 | 1007.9 |
| 20260506015005 | 67 | 24 | 2.6 | 8.7 | 0.00 | 0.00 | 0.00 | 72 | 1007.9 |
| 20260506014525 | 67 | 337 | 3.5 | 8.7 | 0.00 | 0.00 | 0.00 | 72 | 1007.6 |
| 20260506014003 | 67 | 336 | 4.3 | 8.7 | 0.00 | 0.00 | 0.00 | 71 | 1007.4 |
| 20260506013503 | 67 | 352 | 4.3 | 8.7 | 0.00 | 0.00 | 0.00 | 70 | 1007.3 |
| 20260506013007 | 67 | 352 | 5.2 | 9.6 | 0.00 | 0.00 | 0.00 | 70 | 1007.4 |
| 20260506012506 | 67 | 31 | 3.5 | 9.6 | 0.00 | 0.00 | 0.00 | 71 | 1007.4 |
| 20260506012008 | 68 | 342 | 4.3 | 8.7 | 0.00 | 0.00 | 0.00 | 71 | 1007.2 |
| 20260506011511 | 68 | 32 | 3.5 | 7.0 | 0.00 | 0.00 | 0.00 | 71 | 1007.0 |
| 20260506011007 | 69 | 24 | 2.6 | 8.7 | 0.00 | 0.00 | 0.00 | 71 | 1007.1 |
| 20260506010502 | 69 | 346 | 3.5 | 8.7 | 0.00 | 0.00 | 0.00 | 70 | 1006.8 |
| 20260506010015 | 69 | 17 | 4.3 | 12.2 | 0.00 | 0.00 | 0.00 | 70 | 1006.7 |
| 20260506005506 | 70 | 325 | 5.2 | 13.0 | 0.00 | 0.00 | 0.00 | 70 | 1006.4 |
| 20260506005015 | 70 | 348 | 5.2 | 13.0 | 0.00 | 0.00 | 0.00 | 70 | 1006.3 |
| 20260506004513 | 70 | 46 | 6.1 | 11.3 | 0.00 | 0.00 | 0.00 | 70 | 1006.6 |
| 20260506004006 | 70 | 343 | 4.3 | 9.6 | 0.00 | 0.00 | 0.00 | 71 | 1006.6 |
| 20260506003513 | 71 | 360 | 4.3 | 13.0 | 0.00 | 0.00 | 0.00 | 70 | 1006.2 |
| 20260506003004 | 71 | 11 | 5.2 | 13.0 | 0.00 | 0.00 | 0.00 | 69 | 1005.8 |
| 20260506002502 | 71 | 344 | 8.7 | 13.0 | 0.00 | 0.00 | 0.00 | 69 | 1005.8 |
| 20260506002007 | 71 | 350 | 9.6 | 13.0 | 0.00 | 0.00 | 0.00 | 68 | 1005.9 |
| 20260506001506 | 72 | 350 | 7.0 | 13.0 | 0.00 | 0.00 | 0.00 | 68 | 1006.0 |
| 20260506001004 | 72 | 319 | 7.8 | 13.0 | 0.00 | 0.00 | 0.00 | 68 | 1006.0 |
| 20260506000507 | 73 | 328 | 6.1 | 12.2 | 0.00 | 0.00 | 0.00 | 68 | 1006.0 |
| 20260506000018 | 73 | 9 | 6.1 | 13.0 | 0.00 | 0.00 | 0.00 | 68 | 1005.9 |
| 20260505235514 | 73 | 337 | 7.8 | 13.0 | 0.00 | 0.00 | 0.00 | 66 | 1005.9 |
| 20260505235004 | 74 | 316 | 7.0 | 12.2 | 0.00 | 0.00 | 0.00 | 66 | 1005.9 |
| 20260505234519 | 74 | 360 | 6.1 | 11.3 | 0.00 | 0.00 | 0.00 | 66 | 1005.8 |
| 20260505234009 | 75 | 340 | 7.0 | 11.3 | 0.00 | 0.00 | 0.00 | 66 | 1005.9 |
| 20260505233506 | 75 | 343 | 5.2 | 12.2 | 0.00 | 0.00 | 0.00 | 65 | 1005.8 |
| 20260505233015 | 75 | 325 | 6.1 | 12.2 | 0.00 | 0.00 | 0.00 | 65 | 1005.7 |
| 20260505232506 | 75 | 331 | 7.0 | 11.3 | 0.00 | 0.00 | 0.00 | 64 | 1005.7 |
| 20260505232012 | 75 | 332 | 7.8 | 11.3 | 0.00 | 0.00 | 0.00 | 64 | 1005.5 |
| 20260505231507 | 76 | 326 | 7.8 | 12.2 | 0.00 | 0.00 | 0.00 | 65 | 1005.8 |
| 20260505231004 | 76 | 326 | 8.7 | 13.9 | 0.00 | 0.00 | 0.00 | 65 | 1005.7 |
| 20260505230509 | 76 | 331 | 9.6 | 13.9 | 0.00 | 0.00 | 0.00 | 63 | 1005.5 |
| 20260505230009 | 77 | 352 | 8.7 | 13.9 | 0.00 | 0.00 | 0.00 | 63 | 1005.4 |
| 20260505225507 | 77 | 319 | 9.6 | 13.9 | 0.00 | 0.00 | 0.00 | 63 | 1005.4 |
| 20260505225006 | 77 | 327 | 7.8 | 13.0 | 0.00 | 0.00 | 0.00 | 64 | 1005.5 |
| 20260505224531 | 78 | 317 | 7.8 | 11.3 | 0.00 | 0.00 | 0.00 | 63 | 1005.4 |
| 20260505224012 | 78 | 321 | 7.8 | 12.2 | 0.00 | 0.00 | 0.00 | 64 | 1005.1 |
| 20260505223514 | 78 | 308 | 6.1 | 12.2 | 0.00 | 0.00 | 0.00 | 63 | 1004.9 |
| 20260505223031 | 78 | 325 | 7.8 | 11.3 | 0.00 | 0.00 | 0.00 | 65 | 1004.9 |
| 20260505222502 | 78 | 316 | 8.7 | 13.9 | 0.00 | 0.00 | 0.00 | 63 | 1005.1 |
| 20260505222010 | 79 | 319 | 10.4 | 13.9 | 0.00 | 0.00 | 0.00 | 62 | 1005.1 |
| 20260505221522 | 80 | 316 | 8.7 | 13.9 | 0.00 | 0.00 | 0.00 | 61 | 1004.9 |
| 20260505221009 | 81 | 346 | 8.7 | 14.8 | 0.00 | 0.00 | 0.00 | 61 | 1004.8 |
| 20260505220505 | 82 | 327 | 9.6 | 14.8 | 0.00 | 0.00 | 0.00 | 60 | 1004.9 |
| 20260505220020 | 83 | 351 | 7.8 | 12.2 | 0.00 | 0.00 | 0.00 | 57 | 1004.8 |
| 20260505215510 | 84 | 331 | 8.7 | 11.3 | 0.00 | 0.00 | 0.00 | 56 | 1004.7 |
| 20260505215009 | 83 | 331 | 7.0 | 11.3 | 0.00 | 0.00 | 0.00 | 54 | 1004.6 |
| 20260505214519 | 84 | 314 | 8.7 | 12.2 | 0.00 | 0.00 | 0.00 | 52 | 1004.6 |
| 20260505214008 | 83 | 319 | 8.7 | 12.2 | 0.00 | 0.00 | 0.00 | 50 | 1004.8 |
| 20260505213507 | 85 | 320 | 8.7 | 12.2 | 0.00 | 0.00 | 0.00 | 49 | 1005.0 |
| 20260505213011 | 85 | 317 | 8.7 | 12.2 | 0.00 | 0.00 | 0.00 | 48 | 1004.9 |
| 20260505212507 | 85 | 9 | 7.8 | 11.3 | 0.00 | 0.00 | 0.00 | 50 | 1004.7 |
| 20260505212012 | 84 | 334 | 8.7 | 13.0 | 0.00 | 0.00 | 0.00 | 49 | 1004.6 |
| 20260505211525 | 85 | 339 | 8.7 | 13.0 | 0.00 | 0.00 | 0.00 | 49 | 1004.7 |
| 20260505211009 | 85 | 344 | 8.7 | 12.2 | 0.00 | 0.00 | 0.00 | 51 | 1004.8 |
| 20260505210510 | 86 | 329 | 8.7 | 13.0 | 0.00 | 0.00 | 0.00 | 53 | 1004.9 |
| 20260505210030 | 86 | 333 | 8.7 | 16.5 | 0.00 | 0.00 | 0.00 | 51 | 1005.0 |
| 20260505205507 | 87 | 327 | 10.4 | 16.5 | 0.00 | 0.00 | 0.00 | 47 | 1004.9 |
| 20260505205008 | 88 | 322 | 5.2 | 12.2 | 0.00 | 0.00 | 0.00 | 53 | 1004.9 |
| 20260505204520 | 88 | 254 | 7.0 | 11.3 | 0.00 | 0.00 | 0.00 | 53 | 1004.8 |
| 20260505204006 | 88 | 214 | 6.1 | 9.6 | 0.00 | 0.00 | 0.00 | 57 | 1004.9 |
| 20260505203507 | 88 | 218 | 5.2 | 9.6 | 0.00 | 0.00 | 0.00 | 54 | 1004.8 |
| 20260505203017 | 88 | 213 | 6.1 | 11.3 | 0.00 | 0.00 | 0.00 | 52 | 1004.9 |
| 20260505202508 | 88 | 235 | 7.0 | 11.3 | 0.00 | 0.00 | 0.00 | 55 | 1005.0 |
| 20260505202009 | 88 | 223 | 4.3 | 11.3 | 0.00 | 0.00 | 0.00 | 57 | 1004.9 |
| 20260505201518 | 87 | 207 | 5.2 | 11.3 | 0.00 | 0.00 | 0.00 | 57 | 1004.9 |
| 20260505201009 | 87 | 271 | 6.1 | 12.2 | 0.00 | 0.00 | 0.00 | 54 | 1005.1 |
| 20260505200512 | 87 | 212 | 6.1 | 15.6 | 0.00 | 0.00 | 0.00 | 54 | 1005.1 |
| 20260505200014 | 87 | 261 | 7.0 | 15.6 | 0.00 | 0.00 | 0.00 | 55 | 1005.1 |
| 20260505195511 | 87 | 254 | 8.7 | 13.0 | 0.00 | 0.00 | 0.00 | 56 | 1005.2 |
| 20260505195012 | 87 | 254 | 7.8 | 13.0 | 0.00 | 0.00 | 0.00 | 55 | 1005.2 |
| 20260505194512 | 87 | 236 | 6.1 | 13.9 | 0.00 | 0.00 | 0.00 | 58 | 1005.3 |
| 20260505194005 | 86 | 240 | 7.8 | 14.8 | 0.00 | 0.00 | 0.00 | 58 | 1005.3 |
| 20260505193507 | 86 | 257 | 7.0 | 14.8 | 0.00 | 0.00 | 0.00 | 58 | 1005.2 |
| 20260505193035 | 86 | 298 | 7.0 | 13.0 | 0.00 | 0.00 | 0.00 | 58 | 1005.2 |
| 20260505192507 | 86 | 241 | 7.8 | 13.0 | 0.00 | 0.00 | 0.00 | 59 | 1005.2 |
| 20260505192010 | 85 | 223 | 8.7 | 15.6 | 0.00 | 0.00 | 0.00 | 60 | 1005.3 |
| 20260505191522 | 85 | 230 | 8.7 | 15.6 | 0.00 | 0.00 | 0.00 | 61 | 1005.0 |
| 20260505191014 | 85 | 259 | 7.0 | 13.0 | 0.00 | 0.00 | 0.00 | 64 | 1005.1 |
| 20260505190507 | 85 | 234 | 7.0 | 13.9 | 0.00 | 0.00 | 0.00 | 63 | 1005.2 |
| 20260505190032 | 85 | 221 | 8.7 | 13.9 | 0.00 | 0.00 | 0.00 | 63 | 1005.1 |
| 20260505185513 | 85 | 224 | 5.2 | 11.3 | 0.00 | 0.00 | 0.00 | 66 | 1005.1 |
| 20260505185006 | 84 | 211 | 6.1 | 12.2 | 0.00 | 0.00 | 0.00 | 65 | 1005.1 |
| 20260505184525 | 84 | 216 | 7.8 | 12.2 | 0.00 | 0.00 | 0.00 | 64 | 1005.0 |
| 20260505184010 | 84 | 223 | 7.0 | 12.2 | 0.00 | 0.00 | 0.00 | 65 | 1005.2 |
| 20260505183511 | 83 | 199 | 5.2 | 13.9 | 0.00 | 0.00 | 0.00 | 67 | 1005.1 |
| 20260505183031 | 82 | 234 | 7.8 | 13.9 | 0.00 | 0.00 | 0.00 | 66 | 1005.3 |
| 20260505182505 | 82 | 238 | 7.8 | 12.2 | 0.00 | 0.00 | 0.00 | 66 | 1005.3 |
| 20260505182010 | 82 | 211 | 7.8 | 13.9 | 0.00 | 0.00 | 0.00 | 69 | 1005.4 |
| 20260505181517 | 82 | 210 | 7.8 | 13.9 | 0.00 | 0.00 | 0.00 | 68 | 1005.4 |
| 20260505181011 | 82 | 221 | 9.6 | 13.0 | 0.00 | 0.00 | 0.00 | 66 | 1005.4 |
| 20260505180511 | 82 | 202 | 8.7 | 18.2 | 0.00 | 0.00 | 0.00 | 67 | 1005.4 |
| 20260505180033 | 81 | 217 | 8.7 | 18.2 | 0.00 | 0.00 | 0.00 | 68 | 1005.4 |
| 20260505175507 | 82 | 192 | 9.6 | 14.8 | 0.00 | 0.00 | 0.00 | 67 | 1005.4 |
| 20260505175013 | 82 | 203 | 6.1 | 13.9 | 0.00 | 0.00 | 0.00 | 68 | 1005.5 |
| 20260505174531 | 82 | 199 | 7.8 | 18.2 | 0.00 | 0.00 | 0.00 | 69 | 1005.4 |
| 20260505174007 | 82 | 260 | 9.6 | 18.2 | 0.00 | 0.00 | 0.00 | 67 | 1005.3 |
| 20260505173509 | 82 | 201 | 8.7 | 16.5 | 0.00 | 0.00 | 0.00 | 68 | 1005.3 |
| 20260505173037 | 82 | 190 | 9.6 | 16.5 | 0.00 | 0.00 | 0.00 | 67 | 1005.2 |
| 20260505172511 | 81 | 227 | 8.7 | 16.5 | 0.00 | 0.00 | 0.00 | 69 | 1005.4 |
| 20260505172021 | 81 | 207 | 9.6 | 16.5 | 0.00 | 0.00 | 0.00 | 69 | 1005.2 |
| 20260505171527 | 81 | 198 | 10.4 | 14.8 | 0.00 | 0.00 | 0.00 | 69 | 1005.2 |
| 20260505171010 | 80 | 199 | 10.4 | 17.4 | 0.00 | 0.00 | 0.00 | 70 | 1005.3 |
| 20260505170514 | 80 | 220 | 9.6 | 18.2 | 0.00 | 0.00 | 0.00 | 70 | 1005.3 |
| 20260505170021 | 80 | 208 | 12.2 | 16.5 | 0.00 | 0.00 | 0.00 | 69 | 1005.2 |
| 20260505165506 | 80 | 209 | 8.7 | 17.4 | 0.00 | 0.00 | 0.00 | 71 | 1005.4 |
| 20260505165010 | 80 | 234 | 11.3 | 17.4 | 0.00 | 0.00 | 0.00 | 71 | 1005.3 |
| 20260505164530 | 79 | 214 | 9.6 | 13.9 | 0.00 | 0.00 | 0.00 | 74 | 1005.4 |
| 20260505164010 | 79 | 212 | 9.6 | 13.0 | 0.00 | 0.00 | 0.00 | 73 | 1005.4 |
| 20260505163510 | 78 | 221 | 8.7 | 14.8 | 0.00 | 0.00 | 0.00 | 74 | 1005.4 |
| 20260505163027 | 78 | 192 | 9.6 | 14.8 | 0.00 | 0.00 | 0.00 | 73 | 1005.4 |
| 20260505162509 | 78 | 215 | 9.6 | 14.8 | 0.00 | 0.00 | 0.00 | 74 | 1005.4 |
| 20260505162016 | 78 | 167 | 11.3 | 16.5 | 0.00 | 0.00 | 0.00 | 74 | 1005.3 |
| 20260505161528 | 78 | 234 | 11.3 | 18.2 | 0.00 | 0.00 | 0.00 | 74 | 1005.2 |
| 20260505161011 | 78 | 171 | 12.2 | 18.2 | 0.00 | 0.00 | 0.00 | 72 | 1005.2 |
| 20260505160506 | 79 | 231 | 7.8 | 12.2 | 0.00 | 0.00 | 0.00 | 74 | 1005.1 |